Location: Neuvy Saint Sepulchre
(46.5953°N, 1.8122°E)
Time: 13:43:00
(UTC+02:00)

ISS - Pass Details

Date: 18 September 2022
Orbit: 414 x 417 km, 51.6° (Epoch: 01 October)

Event Time Altitude Azimuth Distance (km) Brightness Sun altitude
Rises 22:56:10 0° 276° (W) 2,364 0.9 -29.0°
Reaches altitude 10° 22:58:23 10° 286° (WNW) 1,501 -0.2 -29.3°
Enters shadow 22:59:13 16° 293° (WNW) 1,202 -0.7 -29.4°
